Tracking 25710 objects as of 4-Jul-2022
HD Live streaming from Space Station
objects crossing your sky now

STARLINK-2285

Track STARLINK-2285 now!
10-day predictions
STARLINK-2285 is classified as:


NORAD ID: 48019
Int'l Code: 2021-024AU
Perigee: 553.2 km
Apogee: 555.5 km
Inclination: 53.1 °
Period: 95.6 minutes
Semi major axis: 6925 km
RCS: Unknown
Launch date: March 24, 2021
Source: United States (US)
Launch site: AIR FORCE EASTERN TEST RANGE (AFETR)
aabbcc
Your satellite tracking list
Your tracking list is empty




NASA's NSSDC Master Catalog

Two Line Element Set (TLE):
1 48019U 21024AU  22185.39635653 -.00002080  00000-0 -12080-3 0  9995
2 48019  53.0528 226.3851 0001634  60.5431 299.5721 15.06394501 72230
Source of the keplerian elements: AFSPC